Home   Weather   Ilio   Past weeks

Flag for Greece Past Weather in Ilio, Greece — Yesterday and Last 2 Weeks

Now
55 °F

Rain. Broken clouds.


Feels Like: 55 °F
Forecast: 46 / 53 °F
Wind: 5 mph from South

Location: Elefsis Airport

Current Time: Jan 18, 2017 at 4:12:49 pm

Latest Report: Jan 18, 2017 at 3:20 pm


Visibility: 5 mi

Pressure: 30.04 "Hg

Humidity: 72%

Dew Point: 46 °F

Location of IlioLocation

Past Weather in Ilio — Graph

°F

Ilio Temperature Yesterday

Maximum temperature yesterday: 57 °F (at 10:20 am)
Minimum temperature yesterday: 41 °F (at 4:50 am)
Average temperature yesterday: 49 °F

High & Low Weather Summary for the Past Weeks

 TemperatureHumidityPressure
High64 °F (Jan 5, 1:50 pm)100% (Jan 8, 8:20 am)30.21 "Hg (Jan 8, 8:20 am)
Low28 °F (Jan 8, 2:20 am)23% (Jan 15, 12:20 pm)29.53 "Hg (Jan 6, 4:20 am)
Average44 °F68%29.91 "Hg
* Reported Jan 3 2:20 pm — Jan 18 2:50 pm, Ilio, Weather by CustomWeather, © 2017

Note: Actual official high and low records may vary slightly from our data, if they occured in-between our weather recording intervals... More about our weather records

Advertising

Ilio Weather History for the Previous 24 Hours

Scroll right to see more
 ConditionsComfort  
Time TempWeatherWind HumidityBarometerVisibility
2:50 pm
Wed, Jan 18
59 °FBroken clouds.8 mph55%30.04 "HgN/A
2:20 pm59 °FBroken clouds.6 mph55%30.04 "HgN/A
1:50 pm59 °FBroken clouds.3 mph55%30.04 "HgN/A
1:20 pm57 °FBroken clouds.3 mph59%30.04 "HgN/A
12:50 pm57 °FBroken clouds.3 mph63%30.07 "HgN/A
11:50 am54 °FBroken clouds.5 mph67%30.07 "HgN/A
10:50 am52 °FBroken clouds.3 mph77%30.07 "HgN/A
10:20 am48 °FBroken clouds.3 mph87%30.07 "HgN/A
9:50 am48 °FRain. Broken clouds.8 mph87%30.07 "Hg3 mi
9:20 am46 °FRain. Broken clouds.No wind87%30.04 "Hg4 mi
8:50 am46 °FBroken clouds.3 mph82%30.04 "HgN/A
8:20 am45 °FLight rain. Broken clouds.No wind87%30.04 "HgN/A
7:50 am43 °FBroken clouds.No wind87%30.04 "HgN/A
7:20 am43 °FPassing clouds.5 mph87%30.01 "HgN/A
6:50 am41 °FPassing clouds.3 mph93%30.01 "HgN/A
6:20 am41 °FPassing clouds.5 mph87%30.01 "HgN/A
5:50 am41 °FPassing clouds.5 mph87%30.01 "HgN/A
5:20 am41 °FPassing clouds.6 mph87%29.98 "HgN/A
4:50 am41 °FPassing clouds.6 mph87%29.98 "HgN/A
4:20 am41 °FPassing clouds.5 mph87%29.98 "HgN/A
3:50 am41 °FPassing clouds.5 mph87%29.98 "HgN/A
3:20 am43 °FPassing clouds.5 mph87%29.98 "HgN/A
2:50 am43 °FPassing clouds.5 mph87%29.98 "HgN/A
2:20 am43 °FPassing clouds.5 mph87%29.98 "HgN/A
1:50 am43 °FPassing clouds.5 mph87%29.98 "HgN/A
1:20 am43 °FPassing clouds.5 mph87%29.95 "HgN/A
12:50 am43 °FPassing clouds.5 mph87%29.95 "HgN/A
12:20 am43 °FPassing clouds.5 mph87%29.95 "HgN/A
11:50 pm
Tue, Jan 17
43 °FPassing clouds.6 mph87%29.95 "HgN/A
11:20 pm45 °FPassing clouds.5 mph87%29.95 "HgN/A
10:50 pm45 °FPassing clouds.6 mph87%29.95 "HgN/A
10:20 pm46 °FPassing clouds.5 mph82%29.92 "HgN/A
9:50 pm46 °FPassing clouds.5 mph82%29.92 "HgN/A
9:20 pm48 °FPassing clouds.5 mph82%29.92 "HgN/A
8:50 pm50 °FPassing clouds.No wind82%29.92 "HgN/A
7:50 pm48 °FPartly cloudy.No wind82%29.92 "HgN/A
7:20 pm48 °FPartly cloudy.No wind76%29.89 "HgN/A
6:50 pm50 °FPartly cloudy.No wind71%29.89 "HgN/A
6:20 pm50 °FPartly cloudy.No wind76%29.89 "HgN/A
5:50 pm54 °FPartly cloudy.No wind67%29.89 "HgN/A
5:20 pm54 °FLight rain. Broken clouds.No wind63%29.89 "HgN/A
4:50 pm54 °FBroken clouds.No wind63%29.86 "HgN/A
4:20 pm55 °FBroken clouds.3 mph59%29.86 "HgN/A
Weather by CustomWeather, © 2017

See weather overviewHow to use our weather pages